ENVISAT

Last updated on Wed Nov 05 2025 00:02:15 GMT+0000 (Coordinated Universal Time)

1 27386U 02009A 25308.46286628 .00000158 00000+0 64942-4 0 9999 2 27386 98.3535 260.1864 0001352 84.0589 25.7838 14.38977043241166
UTC large
Height (km)
Speed (km/s)
/
Latitude / Longitude
Inclination (degrees)
Orbital Period (minutes)
Azimuth
Elevation
Range (km)
Doppler Factor

Next 0 passes for location: London (51.5072 / 0.1276)

Sorry there are no passes over London.